ONEWEB-0152

Last updated on Sun Apr 25 2021 00:02:03 GMT+0000 (Coordinated Universal Time)

1 48043U 21025B 21114.58336806 -.01085351 00000-0 -50611-1 0 9996 2 48043 87.4178 339.3603 0010807 137.3307 342.3536 15.22886185 1770

Satellite not in orbit

ONEWEB-0152